Regional Weather Roundup
Issued by NWS Grand Forks, ND

Home | Current Version | Previous Version | Text Only | Print | Product List | Glossary Off
Versions: 1 2 3 4 5 6 7 8 9 10 11 12 13 14 15 16 17 18 19 20 21 22 23 24 25 26 27 28 29 30 31 32 33 34 35 36 37 38 39 40 41 42 43 44 45 46 47 48 49 50

000
ASUS43 KFGF 082331
RWRFGF
PRAIRIE TO PINES  WEATHER ROUNDUP
NATIONAL WEATHER SERVICE EASTERN NORTH DAKOTA/GRAND FORKS ND
500 PM CST THU DEC 08 2016

 **SATELLITE DATA USED TO AUGMENT SKY COVER AT AUTOMATED STATIONS**
 *****  WEATHER ACROSS EASTERN NORTH DAKOTA  *****

CITY           SKY/WX    TMP DP  RH WIND       PRES   REMARKS
GRAND FORKS    CLOUDY    11   5  77 NW15      30.59R WCI  -5
GRAND FRKS AFB FLURRIES   9   3  78 NW10      30.59R WCI  -6
DEVILS LAKE    MOCLDY     0  -4  83 NW16      30.57S WCI -20
FARGO          LGT SNOW  14   8  77 NW13      30.58S WCI   0
WAHPETON ARPT  CLOUDY    10   5  79 NW15G22   30.59R WCI  -6
$$

 ***** WEATHER ACROSS CENTRAL AND WESTERN NORTH DAKOTA  *****

CITY           SKY/WX    TMP DP  RH WIND       PRES   REMARKS
BISMARCK       CLOUDY     2  -3  80 NW10      30.64R WCI -14
MINOT          FAIR       0  -6  76 W10       30.59F WCI -16
JAMESTOWN      FAIR       0  -5  79 NW14      30.59S WCI -19
MINOT AFB      CLOUDY    -1  -7  74 W10       30.59S WCI -17
GARRISON         N/A     -3  -9  75 NW8       30.59F WCI -18
WILLISTON      CLEAR     -4 -12  68 W8        30.63S WCI -19
DICKINSON      CLEAR     -4 -10  75 NW10      30.51F WCI -21
HETTINGER      CLOUDY     0  -5  79 NW7       30.54F WCI -13
$$

 *****  OTHER AIRPORT OBSERVATIONS IN OUR AREA  *****

CITY           SKY/WX    TMP DP  RH WIND       PRES   REMARKS
WALHALLA         N/A      9   9 100 NW9       30.60R WCI  -5
GRAFTON AIRPOR CLOUDY    10   7  85 NW12      30.61R WCI  -4
VALLEY CITY AR FLURRIES   1  -2  85 NW17      30.59F WCI -19
CANDO          CLOUDY     0  -4  85 NW12      30.60S WCI -18
CAVALIER APRT    N/A     10   5  79 NW8       30.59S WCI  -1
GWINNER        FAIR       9   1  72 NW16G22   30.60R WCI  -9
SHEYENNE NWR     N/A      7  -1  70 NW12      29.95S WCI  -8
ROLLA          FLURRIES   0  -2  92 NW13      30.54S WCI -18
 ***** THE ABOVE OBSERVATIONS ARE NON NWS ARE NOT QUALITY
       CONTROLLED AND MAY MIS-REPORT RAIN FOR SNOW...
$$

  *****  WEATHER ACROSS NORTHERN MINNESOTA  *****

CITY           SKY/WX    TMP DP  RH WIND       PRES   REMARKS
FLAG ISLAND    CLOUDY    16  10  79 NW18      30.46S WCI  -1
WARROAD        FLURRIES  14  10  85 NW12      30.49R WCI   0
ROSEAU         CLOUDY    14   9  79 W9        30.51R WCI   2
HALLOCK        FAIR       9   3  78 N13       30.57S WCI  -7
THF RVR FALLS  FLURRIES  12   9  87 NW16      30.53R WCI  -5
BAUDETTE       CLOUDY    17   9  70 NW13G21   30.43S WCI   4
WASKISH        CLOUDY    16  10  79 NW10G17   30.46R WCI   3
CROOKSTON      CLOUDY    12  10  92 N15       30.57S WCI  -4
STEPHEN NDAWN    N/A     10   7  85 N15         N/A  WCI  -6
GREENBUSH NDAW   N/A     10   9  92 NW12        N/A  WCI  -4
$$
  *****  WEATHER ACROSS CENTRAL AND WEST MINNESOTA  *****

CITY           SKY/WX    TMP DP  RH WIND       PRES   REMARKS
FOSSTON        CLOUDY    10   7  85 NW10      30.51R WCI  -3
BEMIDJI        FAIR      13  10  87 NW8       30.45R WCI   1
PARK RAPIDS    LGT SNOW  13   6  74 NW9       30.45R WCI   1
ELBOW LAKE     FLURRIES  11   8  87 NW16G23   30.54R WCI  -6
WADENA         FLURRIES  12   9  85 NW9       30.47S WCI   0
DETROIT LAKES  LGT SNOW  12  10  92 NW10      30.51R WCI  -1
MOORHEAD       MIX PCPN  12   9  85 NW13      30.58R WCI  -3
FERGUS FALLS   LGT SNOW  10   9  92 NW16      30.59S WCI  -7
MORRIS MN      MOCLDY    10   7  85 NW17      30.53S WCI  -7
STAPLES        CLOUDY    12   9  85 W9        30.47R WCI   0
$$
  *****  WEATHER ELSEWHERE ACROSS MINNESOTA  *****

CITY           SKY/WX    TMP DP  RH WIND       PRES   REMARKS
DULUTH         MOCLDY    20  11  68 NW14      30.32R WCI   7
INTRNTL FALLS  CLOUDY    16   9  74 NW13G22   30.40R WCI   2
ELY            FAIR      16  10  79 NW7       30.32R WCI   6
CLOQUET        FAIR      19  10  68 W9        30.35R WCI   9
WHEATON        MOCLDY    10   7  85 NW9       30.60R WCI  -2
BRAINERD       CLOUDY    19  12  74 NW13      30.43R WCI   6
HIBBING        CLOUDY    17  10  74 NW16      30.36R WCI   2
ALEXANDRIA     CLOUDY    14   8  77 NW14G23   30.48R WCI  -1
SAINT CLOUD    FLURRIES  19  11  70 NW13      30.46R WCI   6
MINNEAPOLIS    FLURRIES  21  11  65 NW14      30.46R WCI   8
$$

  *****  WEATHER ACROSS SOUTH DAKOTA  *****

CITY           SKY/WX    TMP DP  RH WIND       PRES   REMARKS
SIOUX FALLS    FAIR      15   7  70 NW14      30.57R WCI   0
BROOKINGS      FAIR      10   6  84 NW13      30.54R WCI  -5
WATERTOWN      FAIR      10   4  76 NW15      30.53R WCI  -7
HURON          CLEAR      9   3  77 NW14      30.64R WCI  -7
SISSETON         N/A      9   3  77 NW13      30.57R WCI  -7
ABERDEEN       CLEAR      7  -1  70 NW12      30.63R WCI  -8
MITCHELL       CLEAR     13   4  67 NW13      30.64R WCI  -2
PIERRE         CLOUDY     6   0  76 N12       30.62F WCI  -9
MOBRIDGE       CLEAR      4  -6  63 NW12      30.60S WCI -12
RAPID CITY     CLEAR      8  -5  55 NE7       30.48F WCI  -3
$$

  *****  SOME WEATHER IN NEARBY STATES *****

CITY           SKY/WX    TMP DP  RH WIND       PRES   REMARKS
GLASGOW MT     CLEAR      3  -5  69 N3        30.57F
GREAT FALLS MT LGT SNOW   0  -5  79 E5        30.36F WCI -10
CHEYENNE WY    PTCLDY     6   2  83 S13       30.22S WCI -10
SCOTTSBLUFF NE CLEAR     15   1  53 E8        30.40F WCI   4
OMAHA NE       FAIR      21   8  57 NW10      30.62R WCI  10
DES MOINES IA  FAIR      23  10  57 NW13      30.54R WCI  11
DAVENPORT IA   FLURRIES  21  15  78 W17G25    30.46R WCI   7
CHICAGO IL     CLOUDY    22  14  71 W15       30.35R WCI   9
EAU CLAIRE WI  LGT SNOW  23  18  81 NW9       30.38R WCI  13
LA CROSSE WI   CLOUDY    26  17  68 NW12      30.40R WCI  16
$$

  *****  SOME NATIONAL WEATHER *****

CITY           SKY/WX    TMP DP  RH WIND       PRES   REMARKS
LA GUARDIA NY  MOCLDY    43  19  38 W16G25    29.93R
RALEIGH NC     MOCLDY    46  20  35 W6        30.17R
ATLANTA GA     CLOUDY    42  20  41 NW13      30.31R
NEW ORLEANS LA CLOUDY    53  40  61 N15G22    30.34R
OKLAHOMA CITY  CLOUDY    30   7  37 N13       30.63S WCI  20
ALBUQUERQUE NM CLEAR     37  15  40 CALM      30.33S
SALT LAKE CITY CLOUDY    27  22  81 NW8       30.15F WCI  19
LOS ANGELES CA MOSUNNY   62  49  62 W9        30.21S
BOISE ID       LGT SNOW  25  22  88 S10       30.11F FOG     WCI  15
SEATTLE WA     MOCLDY    36  12  37 NE10G20   29.94F
$$

*** WEATHER ACROSS MANITOBA...SASKATCHEWAN AND ONTARIO ***
                ***ONTARIO***

CITY           SKY/WX    TMP DP  RH WIND       PRES   REMARKS
GERALDTON      FLURRIES  14   9  79 NW9       30.17R WCI   2
THUNDER BAY    FLURRIES  19  12  73 NW10      30.30R WCI   8
SIOUX LOOKOUT  FLURRIES  12   7  79 N10       30.36R WCI  -1
TORONTO        PTCLDY    28  19  69 W22G35    29.93S WCI  15
BIG TROUT LK   FLURRIES   7   3  85 NW15G21   30.36R WCI -11
PICKLE LAKE    FLURRIES   7   1  78 NW12G20   30.32R WCI  -9
DRYDEN         FLURRIES  10   9  92 NW7       30.37S WCI   0
KENORA         FLURRIES   9   3  78 NW9G17    30.44R WCI  -5
$$
                *** MANITOBA***

CITY           SKY/WX    TMP DP  RH WIND       PRES   REMARKS
BRANDON        PTCLDY     3  -4  72 NW15      30.57S WCI -15
DAUPHIN        CLOUDY     0  -4  85 NE3       30.62R
ISLAND LAKE    NOT AVBL
PILOT MOUND      N/A      3   0  85 NW9         N/A  WCI -11
THE PAS        CLOUDY    -2  -9  71 NW13G20   30.65S WCI -21
THOMPSON       PTCLDY   -13 -20  70 NW6       30.62S WCI -27
WINNIPEG       MOCLDY     7   1  78 NW10      30.59R WCI  -8
LYNN LAKE      CLEAR    -15 -20  76 NW7       30.65F WCI -31
CHURCHILL      FLURRIES   0  -4  85 NW23G32   30.55R WCI -24
GILLAM         PTCLDY   -11 -18  70 NW8       30.57S WCI -28
$$
                ***SASKATCHEWAN***

CITY           SKY/WX    TMP DP  RH WIND       PRES   REMARKS
ESTEVAN        FLURRIES  -6  -9  84 W12       30.59F WCI -24
KINDERSLEY     MOCLDY    -8 -11  84 N6        30.59F WCI -21
LLOYDMINSTER   PTCLDY    -9 -15  77 N5        30.62S WCI -21
PRINCE ALBERT  MOCLDY    -9 -17  70 W7        30.68S WCI -24
REGINA         PTCLDY    -4  -9  77 NW9       30.59F WCI -20
YORKTON        CLEAR     -6 -11  77 W12       30.58S WCI -24
N. BATTLEFORD  MOCLDY   -11 -17  77 N3        30.68S
LA RONGE       CRYSTALS  -9 -17  70 NW6       30.73R WCI -23
SASKATOON      CRYSTALS  -6 -13  71 NW9       30.67S WCI -22
SWIFT CURRENT  FLURRIES  -6  -9  84 W5        30.52S WCI -17
$$
NOTE: THESE ARE AUTOMATED STATIONS WITH LIMITED QUALITY CONTROL
      "FAIR" INDICATES FEW OR NO CLOUDS BELOW 12,000 FEET WITH NO
      SIGNIFICANT WEATHER AND/OR OBSTRUCTIONS TO VISIBILITY.
      SKY/WX - SKY CONDITION AND SIGNIFICANT WEATHER.
      TMP - AIR TEMPERATURE.    DP   - DEWPOINT TEMPERATURE.
      RH  - RELATIVE HUMIDITY.  PRES - PRESSURE.
      HX  - HEAT INDEX.         WCI  - WIND CHILL INDEX.
$




USA.gov is the U.S. government's official web portal to all federal, state and local government web resources and services.